User: anonymous   Login
Location: Unspecified
(0.0000°N, 0.0000°E)
Time: 13:11:42
(UTC+02:00)
Language:

Cosmos 2263 Rocket - Orbit

View from above orbital plane
View from above orbital plane
View from above satellite
View from above satellite

Ground track
Ground track

The orbit data is extracted from the following two-line orbital elements,

1 22803U 93059B   14297.06487461 -.00000031  00000-0  85714-5 0  4057
2 22803 070.9895 127.2671 0015541 052.8162 307.4378 14.16682105 91300
Epoch (UTC): 24 October 2014 01:33:25
Eccentricity: 0.0015541
inclination: 70.9895°
perigee height: 825 km
apogee height: 848 km
right ascension of ascending node: 127.2671°
argument of perigee: 52.8162°
revolutions per day: 14.16682105
mean anomaly at epoch: 307.4378°
orbit number at epoch: 9130

The dashed part of the orbit path shows where the satellite is in the earth's shadow,  

DLR